METEOR 2-17

导读

METEOR 2-17是独联体(CIS)发射的第二代“流星”极轨业务气象卫星,于1988年1月30日发射入轨,属于苏联“流星二号”气象卫星系列。该卫星主要用于获取全球云层覆盖、地球辐射等气象数据,搭载可见光红外相机、多通道扫描辐射计等载荷,可为气象预报与大气研究提供基础观测资料,和同系列卫星共同支撑全球气象监测网络。

Basic Information
目录编号:
18820
目录名称:
METEOR 2-17
国际标识:
1988-005A
轨道中心:
EARTH
卫星名称:
METEOR 2-17
卫星全名:
--
卫星状态:
在轨 (已飞行14108 天)
发射日期:
1988-01-30 UTC
国别 :
俄罗斯(独联体) (CIS)
星等 :
--
This satellite is enrolled in the Space Conjunction Data Service (SCDS) and the current flight risk assessment level is: No High Risk
Orbit Information
数据来源 国际轨道数据 AOE轨道数据
星历时间 2026-09-15T17:21:32+0800
12小时前
查看轨道信息
2026-09-15T11:00:00+0800
19小时前
查看轨道信息
半长轴 7322.004km 7321.996km
偏心率 0.0016486 0.001648
轨道倾角 82.538° 82.539°
近地点辐角 181.306° 181.888°
升交点赤经 251.778° 251.988°
平近点角 342.770° 101.255°
近地点 931.795km 931.792km
远地点 955.939km 955.926km
周期 103.921分钟 103.921分钟
每日圈数 13.856638 13.856661
Detailed Information
使用方式:
暂无
2D Orbit Map
3D Orbit Map
Orbit Altitude Analysis Chart
Orbit Inclination Analysis Chart
Orbit Comprehensive Analysis Chart
View Comprehensive Chart
Conjunction Data List
Event ID Objects TCA Miss Dist (km) Collision Risk Probability Collision Risk Index (CRI) Action
CDM_260917-072601-882003-994122
2026-09-17T
07:26:30+0000
1.316 km
极远距离
1.03329E-5 中风险 0.55
CDM_260917-092001-882004-451724
2026-09-17T
09:20:16+0000
2.056 km
极远距离
1.090155E-6 低风险 0.36
Miss Distance Evolution Trend with All Objects Subscribe to Flight Safety Assessment
Collision Probability Evolution Trend with All Objects Subscribe to Flight Safety Assessment